Tracking 31027 objects as of 19-Jul-2025
HD Live streaming from Space Station
objects crossing your sky now

DELTA 1 DEB

Track DELTA 1 DEB now!
10-day predictions


NORAD ID: 37665
Int'l Code: 1978-026KC
Perigee: 756.2 km
Apogee: 788.8 km
Inclination: 99.2 °
Period: 100.1 minutes
Semi major axis: 7143 km
RCS: 0.0151 m2 (small)
Launch date: March 5, 1978
Source: United States (US)
Launch site: AIR FORCE WESTERN TEST RANGE (AFWTR)

Note: This is SATELLITE DEBRIS
Your satellite tracking list
Your tracking list is empty




NASA's NSSDC Master Catalog

Two Line Element Set (TLE):
1 37665U 78026KC  25194.19674031  .00001934  00000-0  65473-3 0  9997
2 37665  99.1501 339.4580 0022849 350.5154   9.5596 14.37931849158876
Source of the keplerian elements: AFSPC